Location: Hains Lake
(37.8540°N, 99.8578°W)
Time: 19:01:42
(UTC+00:00)

Vanguard 1 - Pass Details

Date: 21 April 2021
Orbit: 649 x 3834 km, 34.2° (Epoch: 04 May)

Event Time Altitude Azimuth Distance (km) Brightness Sun altitude
Rises 04:05:38 0° 285° (WNW) 7,906 15.5 -28.7°
Reaches altitude 10° 04:12:34 10° 275° (W) 6,942 14.9 -29.7°
Maximum altitude 04:28:48 25° 230° (SW) 5,296 13.7 -31.7°
Enters shadow 04:37:53 18° 196° (SSW) 5,255 13.4 -32.8°
